COSMOS 1691 DEB, 16266

Orbit data source: Space-Track

COSMOS 1691 DEB, 16266 is space debris in LEO originally from a launch on Wed, 09 Oct 1985 UTC launched from the Plesetsk Missile And Space Complex (PKMTR). Debris objects in space refer to the collection of defunct objects orbiting the Earth. Examples of debris include non-operational satellites, rocket bodies, and fragments generated from explosions, collisions, or faulty payload assembly.

Loading next visibility...
Identifier
16266, 1985-094K
Orbit
LEO
Country
Flag of CISCIS
Related business
Manufacturer
Unknown
Mission
Spacecraft
Bus & Motor
Unknown
Mass
Unknown
Launch date (UTC)
1985-10-09 (41 years ago)
Launch vehicle
Unknown
Launch site
Plesetsk Missile And Space Complex (PKMTR)
Object type
Payload
Rocket body
Debris
Shape & HBR
Unknown shape, 0.2 m
Radar Cross Section
Small (<0.1 m²)

Expand to show TLE details & history
Last TLE update: 1 day ago

TLE from 1 day ago
0 COSMOS 1691 DEB
1 16266U 85094K   26126.37996745  .00000259  00000-0  13105-2 0  9992
2 16266  82.5994 273.1600 0007822  99.2664 288.7416 12.66722537872198
Epoch: 2026-05-06T09:07Z
TLE epoch observation values (Epoch: 2026-05-06T09:07:09.187Z)
Latitude
27.70835°
Longitude
-83.97738°
Altitude
1,396.635 km
Speed
7.165 km/s
True Right ascension
18h 28m 12s
True Declination
27° 34' 43"
Sunlit
Object was in daylight at epoch
Visualization orbit readout
Latitude
Unknown
Longitude
Unknown
Altitude
Unknown
Speed
Unknown
Apparent Right ascension
Unknown
Apparent Declination
Unknown
Sunlit
N/A
Visualization observer readout
Local Sidereal Time
21:43:55
Azimuth
Unknown
Elevation
Unknown
Doppler factor
Unknown
Orbital elements
Apogee altitude
1,398.712 km
Perigee altitude
1,386.555 km
Semi-major axis
7,770.77 km
Eccentricity
0.00078
Inclination
82.5994°
RAAN
273.16°
Arg. of periapsis
99.2664°
True anomaly
288.65669°
Mean anomaly
288.7416°
Eccentric anomaly
288.69915°
Mean motion
3.16845 °/min
Orbital period
113.62 mins
BSTAR
0.0013105
Loading maneuver chart data...
Computing Atmospheric mass density...
Loading historical data...
Loading historical data...
Loading historical data...
Loading historical data...
Loading historical data...
Loading historical data...
Loading historical data...

Documentation

Showing up to 5 results
|